Regional Weather Roundup
Issued by NWS

Home | Current Version | Previous Version | Graphics & Text | Print | Product List | Glossary On
Versions: 1 2 3 4 5 6 7 8 9 10 11 12 13 14 15 16 17 18 19 20 21 22 23 24 25 26 27 28 29 30 31 32 33 34 35 36 37 38 39 40 41 42 43 44 45 46 47 48 49 50
000
ASUS43 KMKX 191310
RWRWI

WISCONSIN REGIONAL WEATHER ROUNDUP
NATIONAL WEATHER SERVICE MILWAUKEE/SULLIVAN WI
700 AM CST SUN NOV 19 2017

NOTE: "FAIR" INDICATES FEW OR NO CLOUDS BELOW 12,000 FEET WITH NO
SIGNIFICANT WEATHER AND/OR OBSTRUCTIONS TO VISIBILITY.

WIZ001-002-006>008-014>016-023>028-191400-
NORTHWEST WISCONSIN

CITY           SKY/WX    TMP DP  RH WIND       PRES   REMARKS
SUPERIOR ARPT  CLEAR     12   8  85 SW7       30.02R WCI   2
ASHLAND        MOCLDY    15   8  73 SW9       29.98S WCI   3
HAYWARD        CLEAR     12   7  80 SW5       29.98S WCI   4
SIREN          CLEAR     14  10  83 W5        30.03S WCI   6
CUMBERLAND     CLEAR     14  10  85 W6        30.01R WCI   5
RICE LAKE      CLEAR     15  11  85 W5        30.03R WCI   7
CHETEK         CLEAR     14  10  85 W3        30.02R
LADYSMITH      CLEAR     15  10  81 W9        30.00R WCI   3
EAU CLAIRE     CLEAR     15  10  80 W6        30.03S WCI   6
MENOMONIE      CLEAR     17  11  80 W7        30.05R WCI   7
NEW RICHMOND   CLEAR     14   9  81 W6        30.04S WCI   5
OSCEOLA        CLEAR     15  11  82 W5        30.08S WCI   8
$$

WIZ003>005-009-010-017-018-191400-
NORTH CENTRAL WISCONSIN

CITY           SKY/WX    TMP DP  RH WIND       PRES   REMARKS
MANITOWISH WTR FLURRIES  14  11  87 W9        29.89S WCI   2
ARBOR VITAE    FLURRIES  17  12  80 NW9       29.89R WCI   5
WOODRUFF       FLURRIES  17  12  80 NW9       29.89R WCI   5
RHINELANDER    FLURRIES   1  32 100 W9        29.90R WCI -14
EAGLE RIVER    CLOUDY    16   9  74 NW9       29.87S WCI   5
LAND O LAKES   LGT SNOW  17  13  86 W7        29.88S WCI   7
PHILLIPS       FLURRIES  12   9  87 CALM      29.92S
TOMAHAWK       CLOUDY    15   9  76 NW7       29.92S WCI   6
MEDFORD        PTCLDY    15  10  80 W8        29.93S WCI   3
MERRILL        FLURRIES  18  10  71 NW5       29.94R WCI  11
$$

WIZ029-030-035-036-043>047-191400-
CENTRAL WISCONSIN

CITY           SKY/WX    TMP DP  RH WIND       PRES   REMARKS
WAUSAU         MOCLDY    19  10  68 NW13      29.93R WCI   6
MOSINEE        MOCLDY    19  12  73 NW12G17   29.95R WCI   7
MARSHFIELD     PTCLDY    16   9  74 NW15      29.95R WCI   1
STEVENS POINT  CLOUDY    19  10  68 NW8G17    29.96R WCI   8
WAUPACA        CLOUDY    25  14  63 NW6       29.96R WCI  18
WAUTOMA        CLOUDY    21  13  71 NW14      29.98R WCI   8
WISC RAPIDS    CLOUDY    19  12  74 NW12      29.99R WCI   7
CAMP DOUGLAS   PTCLDY   N/A N/A N/A W10       30.02R
$$

WIZ011>013-019>022-031-037>040-048>050-191400-
NORTHEAST WISCONSIN

CITY           SKY/WX    TMP DP  RH WIND       PRES   REMARKS
ANTIGO         FLURRIES  18  12  76 NW14      29.90R WCI   4
SHAWANO        CLOUDY    26  15  62 NW10G16   29.93R WCI  16
OCONTO         CLOUDY    25  11  57 NW10G16   29.92R WCI  14
STURGEON BAY   CLOUDY    26  14  60 NW18G24   29.89R WCI  13
GREEN BAY      CLOUDY    26  15  63 NW17      29.93R WCI  13
MANITOWOC      CLOUDY    26  16  65 NW15G21   29.92R WCI  14
APPLETON       MOCLDY    25  10  54 W20       29.92R WCI  11
CLINTONVILLE   CLOUDY    23  10  58 NW17      29.94R WCI   9
OSHKOSH        MOCLDY    24  15  68 NW12      29.94R WCI  13
$$

WIZ032>034-041-042-053>061-191400-
SOUTHWEST WISCONSIN

CITY           SKY/WX    TMP DP  RH WIND       PRES   REMARKS
LA CROSSE      PTCLDY    20  12  71 W9        30.06R WCI   9
SPARTA         CLEAR     18  12  79 W6        30.05R WCI   9
VIROQUA        CLEAR     18  14  86 NW6       30.01R WCI  10
BOSCOBEL       CLEAR     21  12  68 CALM      30.07R
PRAIRIE DU CHI CLEAR     21  12  68 W8        30.09R WCI  11
PLATTEVILLE    PTCLDY    21  16  83 NW9       30.03S WCI  10
$$

WIZ056-057-062-063-064-067-068-191400-
SOUTH CENTRAL WISCONSIN

CITY           SKY/WX    TMP DP  RH WIND       PRES   REMARKS
REEDSBURG      CLEAR     19  12  75 NW7       30.01R WCI  10
BARABOO/DELLS  CLEAR     19  12  73 NW10      30.00R WCI   8
LONE ROCK      CLEAR     21  15  78 W8        30.04R WCI  11
MINERAL POINT  CLEAR     21  18  86 NW6       30.01R WCI  14
MADISON        PTCLDY    22  15  75 NW7       29.98R WCI  13
MIDDLETON      CLOUDY    24  18  77 W9        30.00R WCI  14
WATERTOWN      CLEAR     23  16  75 NW13G18   29.97R WCI  11
MONROE         CLEAR     21  16  79 W13G21    29.99R WCI   9
JANESVILLE     PTCLDY    25  18  74 NW8       29.98R WCI  16
$$

WIZ051-052-058>065-066-070>072-191400-
SOUTHEAST WISCONSIN

CITY           SKY/WX    TMP DP  RH WIND       PRES   REMARKS
MILWAUKEE      MOCLDY    29  16  58 NW15      29.95R WCI  18
WAUKESHA       MOCLDY    25  16  68 W17G29    29.95R WCI  11
MILWAUKEE/TIMM CLOUDY    28  14  54 W13       29.96R WCI  18
RACINE         MOCLDY    29  17  61 NW10G22   29.97R WCI  20
BURLINGTON     CLOUDY    28  21  75 NW15      29.97R WCI  17
KENOSHA        PTCLDY    28  17  63 W14       29.96R WCI  17
FOND DU LAC    CLOUDY    26  15  63 NW17      29.95R WCI  13
SHEBOYGAN      CLOUDY    27  17  66 NW13      29.92R WCI  16
WEST BEND      CLOUDY    27  16  63 W15G23    29.93R WCI  15
JUNEAU         PTCLDY    22  14  71 NW12G20   29.97R WCI  10
$$

LSZ147-162-191400-
LAKE SUPERIOR

STATION/POSITION TIME  TEMP    WIND        PRES    WAVE
                       AIR SEA DIR/SP/G            HT/PER
                 (UTC) (F)     (DEG/KT/KT) (MB)    (FT/S)
DEVILS ISLAND    1200   20     270/ 14/ 20 1015.4S
SAXON HARBOR     1230   19     240/  6/ 13 1014.6S
$$

LMZ867-665-643>646-191400-
LAKE MICHIGAN

STATION/POSITION TIME  TEMP    WIND        PRES    WAVE
                       AIR SEA DIR/SP/G            HT/PER
                 (UTC) (F)     (DEG/KT/KT) (MB)    (FT/S)
N MID LAKE BUOY  1250   31 48  300/ 21/ 27 1011.2R   5/ 5
NORTHPORT PIER   1240   28     300/ 15/ 24 1011.2R
SHEBOYGAN LAKESH 1300   28     320/ 15/ 17 1014.0R
PORT WASHINGTON  1230   29     300/ 10/ 17 1014.6R
MILWAUKEE LAKESH 1250   29     300/ 13/ 17   N/A
S MID LAKE BUOY  1150   35 49  340/ 21/ 25 1012.6R   6/ 7
KENOSHA   LAKESH 1200   29     300/ 16/ 22 1013.9
$$

TC  - TEMPERATURE IN CELSIUS
VSB - VISIBILITY IN STATUTE MILES
WCI - WIND CHILL INDEX
HX  - HEAT INDEX





USA.gov is the U.S. government's official web portal to all federal, state and local government web resources and services.